[[{"header":{"parameterUnit":"m.s-1","parameterCategory":1,"la1":30.2992,"la2":30.254,"lo1":-89.0895,"lo2":-89.0443,"dy":0.0025,"dx":0.0025,"nx":19,"ny":19,"refTime":"2026-03-23T21:00:00:Z","depth":0,"parameterNumber":2,"parameterNumberName":"U-component_of_WINDS"},"data":[0,0,0,-2.0485,-2.0486,-2.0509,-2.0509,-2.0562,-2.0562,0,0,0,0,0,0,0,0,0,0,0,-2.0493,-2.0494,-2.0485,-2.0486,-2.0509,-2.0509,-2.0562,-2.0562,0,0,0,0,0,0,0,0,0,0,0,-2.0492,-2.0493,-2.0494,-2.0486,-2.0509,-2.0509,-2.0561,-2.0536,0,0,0,0,0,0,0,0,0,0,-2.051,-2.0531,-2.0493,-2.0494,-2.0487,-2.0509,-2.0509,-2.0534,-2.0538,-2.0562,0,-2.0586,0,-2.0575,-2.0567,-2.0568,0,0,0,-2.0476,-2.0528,-2.0521,-2.0494,-2.0487,-2.0509,-2.0496,-2.0536,-2.054,-2.0566,-2.0586,-2.0588,-2.0576,-2.0568,-2.0568,-2.0737,-2.0739,0,0,-2.0475,-2.0505,-2.0519,-2.0524,-2.0521,-2.0495,-2.0497,-2.0538,-2.0563,-2.0587,-2.0589,-2.0577,-2.0568,-2.0569,-2.0736,-2.0738,0,0,0,-2.0478,-2.0505,-2.0496,-2.0523,-2.0525,-2.0496,-2.0498,-2.0561,-2.0555,-2.0589,-2.0577,-2.0569,-2.057,-2.0735,-2.0737,-2.0829,0,0,0,-2.0477,-2.0506,-2.0496,-2.0514,-2.0524,-2.0543,-2.052,-2.0553,-2.0556,-2.0577,-2.0569,-2.0571,-2.0733,-2.0736,-2.0823,-2.0868,0,0,0,-2.0487,-2.0507,-2.0515,-2.0516,-2.0526,-2.0541,-2.0538,-2.0553,-2.055,-2.0568,-2.0571,-2.0732,-2.0735,-2.0818,-2.086,-2.0922,0,0,0,-2.0506,-2.0597,-2.0517,-2.0614,-2.0526,-2.0597,-2.0537,-2.0589,-2.0615,-2.0569,-2.0733,-2.0737,-2.0816,-2.0855,-2.0917,-2.0982,-2.1011,0,0,-2.0638,-2.0614,-2.0668,-2.0597,-2.069,-2.0591,-2.0697,-2.0694,-2.0669,-2.0716,-2.072,-2.0825,-2.0859,-2.0921,-2.1159,-2.1182,0,0,0,-2.072,-2.076,-2.0778,-2.0804,-2.0802,-2.0804,-2.0781,-2.0779,-2.0818,-2.0699,-2.0862,-2.0882,-2.0917,-2.0947,-2.0966,-2.0995,-2.0751,-2.075,-2.075,-2.0953,-2.0913,-2.1001,-2.0965,-2.099,-2.0964,-2.0981,-2.0975,-2.0929,-2.0968,-2.0983,-2.1132,-2.1168,-2.1183,-2.1213,-2.1012,-2.1012,-2.1013,-2.1013,-2.1144,-2.1195,-2.1129,-2.1191,-2.115,-2.1202,-2.1179,-2.1145,-2.1188,-2.1118,-2.1147,-2.1077,-2.1209,-2.1234,-2.1019,-2.1018,-2.1017,-2.1017,-2.1016,-2.1294,-2.1312,-2.1306,-2.1338,-2.1366,-2.1325,-2.1369,-2.1329,-2.1292,-2.1321,-2.1333,-2.1332,-2.1327,-2.1329,-2.1329,-2.133,-2.133,-2.1331,-2.1331,-2.1453,-2.1444,-2.1485,-2.1488,-2.1499,-2.1507,-2.148,-2.1489,-2.149,-2.1457,-2.1457,-2.1409,-2.1228,-2.1185,-2.1339,-2.1337,-2.1336,-2.1336,-2.1335,-2.1667,-2.1611,-2.1676,-2.1686,-2.1686,-2.1717,-2.1664,-2.1686,-2.1688,-2.1711,-2.1655,-2.1527,-2.1501,-2.1485,-2.1449,-2.1662,-2.1662,-2.1662,-2.1662,-2.1796,-2.1777,-2.1833,-2.1852,-2.1865,-2.1823,-2.1897,-2.1876,-2.1845,-2.1844,-2.1807,-2.1755,-2.174,-2.1723,-2.1701,-2.1668,-2.1931,-2.1932,-2.1932,-2.1926,-2.1906,-2.1978,-2.1945,-2.1941,-2.1939,-2.2008,-2.2033,-2.1987,-2.1942,-2.1843,-2.1832,-2.1747,-2.1721,-2.1678,-2.1646,-2.1583,0,0]},{"header":{"parameterUnit":"m.s-1","parameterCategory":1,"la1":30.2992,"la2":30.254,"lo1":-89.0895,"lo2":-89.0443,"dy":0.0025,"dx":0.0025,"nx":19,"ny":19,"refTime":"2026-03-23T21:00:00:Z","depth":0,"parameterNumber":3,"parameterNumberName":"V-component_of_WINDS"},"data":[0,0,0,-4.7475,-4.7478,-4.7599,-4.76,-4.7758,-4.7759,0,0,0,0,0,0,0,0,0,0,0,-4.7445,-4.7446,-4.7475,-4.7478,-4.7599,-4.76,-4.7757,-4.7759,0,0,0,0,0,0,0,0,0,0,0,-4.7444,-4.7446,-4.7447,-4.7479,-4.7599,-4.76,-4.7757,-4.7664,0,0,0,0,0,0,0,0,0,0,-4.7545,-4.7524,-4.7445,-4.7448,-4.7479,-4.7599,-4.76,-4.7659,-4.7669,-4.7705,0,-4.7742,0,-4.7753,-4.777,-4.7771,0,0,0,-4.7473,-4.7515,-4.7543,-4.7448,-4.7481,-4.7599,-4.7543,-4.7665,-4.7677,-4.7719,-4.7744,-4.775,-4.7756,-4.7771,-4.7772,-4.8004,-4.8005,0,0,-4.7466,-4.7469,-4.7535,-4.7551,-4.7537,-4.7539,-4.7547,-4.7672,-4.7698,-4.7745,-4.7753,-4.7759,-4.7772,-4.7774,-4.8003,-4.8005,0,0,0,-4.7451,-4.7464,-4.7489,-4.7545,-4.7566,-4.7543,-4.7552,-4.7692,-4.77,-4.7755,-4.776,-4.7773,-4.7775,-4.8002,-4.8004,-4.8073,0,0,0,-4.7446,-4.7455,-4.7486,-4.7489,-4.7564,-4.7632,-4.7569,-4.7692,-4.7706,-4.776,-4.7773,-4.7777,-4.8,-4.8003,-4.8068,-4.8105,0,0,0,-4.7435,-4.7454,-4.7474,-4.7489,-4.7542,-4.763,-4.7645,-4.7695,-4.7709,-4.7771,-4.7777,-4.7999,-4.8002,-4.8064,-4.8098,-4.8167,0,0,0,-4.7423,-4.7532,-4.7475,-4.7599,-4.7541,-4.7673,-4.7644,-4.7741,-4.7802,-4.7774,-4.8,-4.8003,-4.8062,-4.8093,-4.8162,-4.8226,-4.8253,0,0,-4.7562,-4.7549,-4.7622,-4.7574,-4.7718,-4.7654,-4.7806,-4.7858,-4.7859,-4.7955,-4.7961,-4.807,-4.8097,-4.8166,-4.8404,-4.8426,0,0,0,-4.7667,-4.7719,-4.7757,-4.7817,-4.7861,-4.7901,-4.793,-4.7949,-4.803,-4.7911,-4.8113,-4.813,-4.817,-4.82,-4.8218,-4.8252,-4.8018,-4.8017,-4.8017,-4.7868,-4.7867,-4.7986,-4.8,-4.8058,-4.8087,-4.8132,-4.8162,-4.8142,-4.819,-4.8218,-4.8363,-4.8399,-4.8412,-4.8448,-4.8251,-4.8252,-4.8252,-4.8252,-4.8072,-4.8146,-4.8118,-4.8224,-4.822,-4.8308,-4.8339,-4.8322,-4.8401,-4.8342,-4.8377,-4.8312,-4.8436,-4.8467,-4.8257,-4.8256,-4.8256,-4.8255,-4.8255,-4.8203,-4.8238,-4.8262,-4.8348,-4.8414,-4.8421,-4.85,-4.8493,-4.8486,-4.8521,-4.8549,-4.8548,-4.8546,-4.8535,-4.8536,-4.8536,-4.8537,-4.8537,-4.8537,-4.833,-4.8354,-4.8423,-4.8479,-4.8517,-4.8564,-4.8594,-4.8629,-4.8665,-4.8654,-4.8654,-4.8628,-4.8449,-4.8404,-4.8545,-4.8544,-4.8543,-4.8542,-4.8542,-4.8538,-4.849,-4.8596,-4.8634,-4.8698,-4.8763,-4.8754,-4.8826,-4.8854,-4.8892,-4.8858,-4.8728,-4.8713,-4.8698,-4.8661,-4.8859,-4.8859,-4.8859,-4.886,-4.8648,-4.8641,-4.8748,-4.8808,-4.8866,-4.8868,-4.8984,-4.9007,-4.9022,-4.9039,-4.9009,-4.8959,-4.8944,-4.8938,-4.8918,-4.8883,-4.9134,-4.9134,-4.9134,-4.8775,-4.8773,-4.8876,-4.8893,-4.8943,-4.8985,-4.9093,-4.9161,-4.9167,-4.9145,-4.9051,-4.904,-4.8959,-4.8933,-4.8908,-4.8877,-4.8813,0,0]}]]